TimeCST,TemperatureF,Dew PointF,Humidity,Sea Level PressureIn,VisibilityMPH,Wind Direction,Wind SpeedMPH,Gust SpeedMPH,PrecipitationIn,Events,Conditions,WindDirDegrees,DateUTC
12:15 AM,53.6,51.8,94,30.25,8.0,NNW,16.1,21.9,N/A,,Overcast,330,2013-11-23 06:15:00
12:35 AM,53.6,51.8,94,30.24,7.0,NNW,21.9,-,N/A,,Overcast,330,2013-11-23 06:35:00
12:55 AM,53.6,50.0,88,30.23,8.0,NW,19.6,27.6,N/A,,Overcast,320,2013-11-23 06:55:00
1:15 AM,51.8,50.0,94,30.24,8.0,NW,19.6,27.6,N/A,,Overcast,320,2013-11-23 07:15:00
1:35 AM,51.8,50.0,94,30.24,6.0,NW,26.5,-,N/A,,Overcast,320,2013-11-23 07:35:00
1:55 AM,51.8,50.0,94,30.24,7.0,NW,24.2,31.1,N/A,,Overcast,320,2013-11-23 07:55:00
2:15 AM,51.8,50.0,94,30.24,9.0,NW,20.7,31.1,N/A,,Overcast,320,2013-11-23 08:15:00
2:35 AM,50.0,48.2,94,30.23,10.0,NW,23.0,31.1,N/A,,Overcast,320,2013-11-23 08:35:00
2:55 AM,50.0,48.2,94,30.24,10.0,NW,25.3,33.4,N/A,,Overcast,320,2013-11-23 08:55:00
3:15 AM,50.0,48.2,94,30.24,10.0,NNW,21.9,31.1,N/A,,Overcast,330,2013-11-23 09:15:00
3:35 AM,50.0,48.2,94,30.24,9.0,NW,25.3,-,N/A,,Overcast,320,2013-11-23 09:35:00
3:55 AM,50.0,48.2,94,30.24,10.0,NW,24.2,32.2,N/A,,Overcast,320,2013-11-23 09:55:00
4:15 AM,50.0,48.2,94,30.23,9.0,NW,24.2,34.5,N/A,,Overcast,320,2013-11-23 10:15:00
4:35 AM,50.0,48.2,94,30.23,9.0,NW,25.3,33.4,N/A,,Overcast,310,2013-11-23 10:35:00
4:55 AM,50.0,48.2,94,30.23,10.0,NW,23.0,31.1,N/A,,Overcast,320,2013-11-23 10:55:00
5:15 AM,50.0,48.2,94,30.23,7.0,NNW,24.2,32.2,N/A,,Overcast,330,2013-11-23 11:15:00
5:35 AM,50.0,48.2,94,30.24,3.0,NW,23.0,31.1,N/A,,Overcast,320,2013-11-23 11:35:00
5:55 AM,50.0,48.2,94,30.24,6.0,NW,23.0,33.4,N/A,,Overcast,320,2013-11-23 11:55:00
6:15 AM,50.0,48.2,94,30.25,5.0,NNW,20.7,31.1,N/A,,Overcast,330,2013-11-23 12:15:00
6:35 AM,50.0,48.2,94,30.26,6.0,NW,25.3,31.1,N/A,,Overcast,320,2013-11-23 12:35:00
6:55 AM,50.0,48.2,94,30.28,8.0,NNW,24.2,-,N/A,,Overcast,330,2013-11-23 12:55:00
7:15 AM,50.0,48.2,94,30.29,4.0,NW,24.2,32.2,N/A,,Overcast,320,2013-11-23 13:15:00
7:35 AM,50.0,48.2,94,30.31,5.0,NW,25.3,-,N/A,,Overcast,320,2013-11-23 13:35:00
7:55 AM,50.0,48.2,94,30.32,4.0,NW,21.9,28.8,N/A,,Overcast,320,2013-11-23 13:55:00
8:15 AM,50.0,48.2,94,30.32,5.0,NW,23.0,-,N/A,,Overcast,320,2013-11-23 14:15:00
8:35 AM,50.0,48.2,94,30.33,5.0,NW,24.2,-,N/A,,Mostly Cloudy,320,2013-11-23 14:35:00
8:55 AM,50.0,48.2,94,30.32,8.0,NNW,21.9,28.8,N/A,,Mostly Cloudy,330,2013-11-23 14:55:00
9:15 AM,50.0,48.2,94,30.33,9.0,NW,24.2,33.4,N/A,,Mostly Cloudy,320,2013-11-23 15:15:00
9:35 AM,50.0,48.2,94,30.34,9.0,NW,24.2,34.5,N/A,,Overcast,320,2013-11-23 15:35:00
9:55 AM,51.8,48.2,88,30.34,10.0,NW,21.9,29.9,N/A,,Overcast,320,2013-11-23 15:55:00
10:15 AM,51.8,50.0,94,30.33,10.0,NW,23.0,-,N/A,,Overcast,320,2013-11-23 16:15:00
10:35 AM,51.8,50.0,94,30.32,10.0,NW,20.7,31.1,N/A,,Overcast,320,2013-11-23 16:35:00
10:55 AM,51.8,50.0,94,30.31,10.0,NNW,16.1,31.1,N/A,,Overcast,330,2013-11-23 16:55:00
11:15 AM,51.8,50.0,94,30.31,10.0,NNW,18.4,27.6,N/A,,Overcast,330,2013-11-23 17:15:00
11:35 AM,51.8,50.0,94,30.31,10.0,NNW,16.1,27.6,N/A,,Overcast,330,2013-11-23 17:35:00
11:55 AM,51.8,50.0,94,30.29,10.0,NNW,15.0,24.2,N/A,,Overcast,330,2013-11-23 17:55:00
12:15 PM,51.8,50.0,94,30.28,9.0,NNW,17.3,24.2,N/A,,Overcast,330,2013-11-23 18:15:00
12:35 PM,51.8,50.0,94,30.27,10.0,NW,25.3,-,N/A,,Overcast,320,2013-11-23 18:35:00
12:55 PM,53.6,50.0,88,30.26,9.0,NNW,17.3,28.8,N/A,,Overcast,330,2013-11-23 18:55:00
1:15 PM,53.6,50.0,88,30.26,10.0,NNW,18.4,25.3,N/A,,Overcast,330,2013-11-23 19:15:00
1:35 PM,53.6,50.0,88,30.25,9.0,NNW,18.4,25.3,N/A,,Overcast,330,2013-11-23 19:35:00
1:55 PM,53.6,50.0,88,30.25,8.0,NNW,18.4,27.6,N/A,,Overcast,330,2013-11-23 19:55:00
2:15 PM,53.6,51.8,94,30.25,7.0,NNW,17.3,24.2,N/A,,Overcast,330,2013-11-23 20:15:00
2:35 PM,53.6,50.0,88,30.26,8.0,NNW,19.6,-,N/A,,Mostly Cloudy,330,2013-11-23 20:35:00
2:55 PM,53.6,51.8,94,30.25,4.0,NNW,20.7,28.8,N/A,,Mostly Cloudy,330,2013-11-23 20:55:00
3:15 PM,53.6,51.8,94,30.26,7.0,NW,20.7,27.6,N/A,,Mostly Cloudy,320,2013-11-23 21:15:00
3:35 PM,53.6,50.0,88,30.27,6.0,NNW,19.6,26.5,N/A,,Mostly Cloudy,330,2013-11-23 21:35:00
3:55 PM,53.6,50.0,88,30.27,6.0,NW,19.6,-,N/A,,Overcast,320,2013-11-23 21:55:00
4:15 PM,53.6,50.0,88,30.27,6.0,NW,19.6,27.6,N/A,,Mostly Cloudy,320,2013-11-23 22:15:00
4:35 PM,53.6,50.0,88,30.27,7.0,NW,21.9,-,N/A,,Mostly Cloudy,320,2013-11-23 22:35:00
4:55 PM,53.6,50.0,88,30.26,10.0,NW,21.9,-,N/A,,Overcast,320,2013-11-23 22:55:00
5:15 PM,53.6,50.0,88,30.27,10.0,NNW,16.1,26.5,N/A,,Overcast,330,2013-11-23 23:15:00
5:35 PM,53.6,48.2,82,30.27,10.0,NNW,19.6,26.5,N/A,,Overcast,330,2013-11-23 23:35:00
5:55 PM,53.6,48.2,82,30.28,10.0,NNW,19.6,31.1,N/A,,Overcast,330,2013-11-23 23:55:00
6:15 PM,53.6,48.2,82,30.28,10.0,NNW,19.6,26.5,N/A,,Overcast,330,2013-11-24 00:15:00
6:35 PM,53.6,50.0,88,30.29,10.0,NNW,19.6,28.8,N/A,,Overcast,330,2013-11-24 00:35:00
6:55 PM,53.6,50.0,88,30.29,10.0,NNW,17.3,24.2,N/A,,Overcast,330,2013-11-24 00:55:00
7:15 PM,53.6,50.0,88,30.29,10.0,NNW,18.4,26.5,N/A,,Overcast,330,2013-11-24 01:15:00
7:35 PM,53.6,50.0,88,30.30,10.0,NNW,16.1,24.2,N/A,,Overcast,330,2013-11-24 01:35:00
7:55 PM,53.6,50.0,88,30.30,8.0,NNW,15.0,27.6,N/A,,Overcast,340,2013-11-24 01:55:00
8:15 PM,53.6,50.0,88,30.30,10.0,NNW,17.3,-,N/A,,Overcast,330,2013-11-24 02:15:00
8:35 PM,53.6,50.0,88,30.31,10.0,NNW,18.4,-,N/A,,Overcast,330,2013-11-24 02:35:00
8:55 PM,53.6,50.0,88,30.31,10.0,NNW,15.0,23.0,N/A,,Overcast,340,2013-11-24 02:55:00
9:15 PM,53.6,50.0,88,30.32,10.0,NNW,16.1,24.2,N/A,,Overcast,330,2013-11-24 03:15:00
9:35 PM,53.6,50.0,88,30.32,10.0,NNW,18.4,25.3,N/A,,Overcast,330,2013-11-24 03:35:00
9:55 PM,53.6,50.0,88,30.33,10.0,NNW,13.8,24.2,N/A,,Overcast,330,2013-11-24 03:55:00
10:15 PM,53.6,50.0,88,30.33,9.0,NNW,11.5,17.3,N/A,,Overcast,340,2013-11-24 04:15:00
10:35 PM,53.6,50.0,88,30.33,10.0,NNW,16.1,-,N/A,,Overcast,330,2013-11-24 04:35:00
10:55 PM,53.6,51.8,94,30.32,10.0,NNW,13.8,20.7,N/A,,Overcast,330,2013-11-24 04:55:00
11:15 PM,55.4,51.8,88,30.32,9.0,NNW,17.3,-,N/A,,Overcast,330,2013-11-24 05:15:00
11:35 PM,55.4,51.8,88,30.31,10.0,NNW,16.1,-,N/A,,Overcast,330,2013-11-24 05:35:00
11:55 PM,55.4,51.8,88,30.30,10.0,NNW,18.4,-,N/A,,Overcast,330,2013-11-24 05:55:00